Wind_Speed
51 48 45 43 39 37 33 32 31 29 27 29 31 31 28 29 30 31 34 38 41 45 48 50 50 53 58 62 66 67 73 78 89 99 95 93 92 95 99 99 101 108 116 112
55 52 50 47 44 42 39 37 36 34 33 33 33 31 27 28 31 30 33 32 33 34 35 35 38 41 47 51 56 60 65 66 71 78 79 82 86 90 93 94 95 94 97 82
59 57 54 51 48 46 44 42 39 39 38 37 36 35 33 33 33 33 35 35 36 37 38 39 41 45 47 47 48 50 51 53 56 59 62 65 69 73 77 83 86 90 85 87
63 61 58 55 52 50 48 47 45 45 43 43 40 40 41 41 39 39 39 40 40 39 41 44 46 48 47 51 52 53 53 51 54 57 60 62 63 66 73 77 82 88 82 92
66 64 63 60 57 56 54 53 52 50 49 47 46 46 49 47 46 45 45 48 45 44 48 49 43 47 53 55 53 54 56 56 60 61 65 66 62 65 69 74 80 88 90 89
71 70 68 66 64 62 61 60 57 54 53 53 54 54 54 54 52 53 52 51 52 53 53 48 51 53 55 54 60 65 65 67 67 63 70 69 57 68 75 78 83 91 92 90
76 74 72 70 67 66 65 63 61 58 59 59 59 58 59 58 56 58 57 58 57 59 54 54 57 58 60 61 64 69 71 74 74 69 72 67 67 70 79 85 87 90 91 93
81 80 77 75 73 70 68 67 66 63 63 63 65 64 64 61 59 60 63 62 62 63 61 62 63 64 65 69 70 73 76 80 81 78 78 74 67 79 84 85 79 85 96 96
83 82 81 79 77 75 73 71 69 67 68 68 68 68 68 67 66 66 68 68 67 68 68 69 68 71 73 73 75 78 82 84 85 84 86 81 74 81 81 86 72 89 91 91
86 84 83 81 79 78 76 75 72 71 70 73 72 72 72 71 70 71 70 70 70 70 72 71 71 72 73 73 74 79 84 87 88 91 92 77 77 80 83 82 81 81 85 85
89 86 85 84 82 79 78 76 75 73 72 75 74 76 78 77 76 73 72 75 73 73 74 74 75 72 74 73 77 81 86 90 91 94 92 84 78 79 78 81 76 77 78 81
92 90 89 87 84 82 83 83 79 75 73 79 79 82 83 79 77 77 76 79 80 79 79 77 77 76 76 79 79 86 87 91 92 95 80 84 80 76 72 74 79 74 75 74
93 91 90 90 88 85 86 85 83 82 79 83 85 87 84 83 80 77 79 82 81 82 78 77 75 76 80 80 79 84 87 91 91 80 74 85 73 70 72 75 72 69 67 68
94 94 92 91 90 89 89 88 85 84 84 84 91 88 86 84 82 79 81 81 82 83 81 77 76 79 79 78 79 79 84 84 83 70 73 77 65 74 76 71 72 71 66 66
91 90 89 89 88 87 87 87 86 83 80 77 83 84 83 82 80 79 81 81 83 82 77 75 75 77 78 75 74 75 82 74 71 66 71 65 60 70 77 69 67 68 63 60
90 87 85 83 81 79 80 82 82 79 77 74 79 83 84 84 82 80 79 79 77 73 71 71 73 77 75 68 66 75 69 69 69 65 63 61 61 58 66 59 60 58 56 56
83 83 82 78 76 77 79 82 80 78 75 73 73 78 83 81 78 77 75 69 68 68 69 69 69 70 69 62 60 61 64 64 65 61 58 57 55 51 57 55 54 48 48 50
78 77 76 75 74 73 81 84 79 75 72 69 67 72 77 74 71 67 64 65 63 62 61 62 63 64 62 56 57 56 59 61 62 58 56 49 47 49 48 49 49 44 47 43
74 73 72 71 70 75 84 77 72 71 67 62 58 58 59 65 68 64 62 60 58 56 57 56 57 57 53 53 55 56 57 57 56 55 48 44 44 42 42 40 42 38 41 38
70 69 67 67 70 75 73 69 68 66 61 54 52 57 61 63 63 60 57 56 54 54 52 51 53 55 48 53 54 53 53 50 47 46 43 44 39 34 29 28 30 34 32 33
67 66 66 67 68 68 68 64 61 57 51 49 50 54 55 52 52 52 51 52 51 50 49 47 51 52 47 51 52 51 49 45 40 39 39 37 28 31 29 25 21 19 17 15
63 64 66 66 65 64 61 57 53 48 44 46 51 55 49 45 46 46 47 46 46 46 46 44 50 45 48 50 51 47 45 41 34 33 37 28 24 24 24 21 16 12 12 11
65 65 65 62 61 56 52 49 46 46 49 52 54 49 41 42 42 43 43 42 43 43 42 44 45 44 48 52 53 45 41 39 33 33 30 27 22 21 18 16 10 9 7 6
62 61 58 57 51 48 48 48 46 48 49 52 48 45 40 41 41 41 40 40 41 39 40 42 42 44 50 51 50 42 40 38 30 30 26 23 21 19 14 10 9 8 8 8
57 54 50 46 46 46 47 45 46 48 50 48 47 42 40 40 39 39 39 37 34 37 40 40 43 47 49 49 48 46 42 32 28 28 25 22 18 16 10 10 10 9 9 9
49 43 41 46 45 47 45 44 45 48 48 45 43 40 39 38 36 36 34 31 35 36 38 42 45 46 47 47 46 42 35 29 28 26 24 23 18 13 12 12 11 10 10 12
38 40 44 45 45 44 40 41 44 47 45 43 42 39 36 33 29 31 32 32 33 37 41 43 43 41 42 41 37 32 26 23 25 25 23 23 21 17 15 16 16 15 14 13
Wind_Direction
222 223 224 224 225 227 223 221 221 221 220 222 225 230 225 227 232 234 239 243 246 249 250 250 249 249 248 248 250 252 252 253 252 264 262 259 258 261 263 263 263 263 263 264
224 225 225 224 224 226 224 222 224 225 229 233 236 239 239 239 242 242 245 246 249 250 253 254 254 252 252 252 252 253 254 254 255 257 260 263 263 263 264 265 265 264 265 266
225 225 225 226 227 227 226 225 227 231 234 237 243 247 248 248 254 255 257 257 257 258 262 261 261 258 258 259 259 259 257 259 258 260 263 265 266 269 269 268 268 266 268 264
226 226 226 227 228 229 230 230 230 235 239 243 246 250 254 256 254 258 260 262 263 267 269 267 264 268 269 267 264 263 264 263 265 266 265 265 266 270 272 274 273 271 269 269
226 226 227 230 231 232 235 235 236 239 242 244 248 252 256 257 260 262 263 265 270 270 267 267 275 274 269 271 273 275 275 274 271 271 272 269 265 270 271 270 269 270 269 270
224 227 228 230 232 233 235 237 240 243 245 248 250 253 258 262 262 265 266 266 267 267 270 276 274 274 274 274 277 278 277 275 274 275 275 274 277 273 271 271 272 268 266 269
226 228 230 232 235 236 238 240 243 245 248 252 254 255 257 260 263 266 267 269 271 272 274 273 272 274 275 275 275 275 277 277 278 278 278 279 279 278 275 273 271 273 271 267
227 229 232 234 236 239 242 243 246 248 250 253 255 257 260 261 264 266 269 270 273 275 274 274 275 275 276 275 276 277 277 279 280 282 280 279 281 281 277 272 271 275 271 271
227 230 233 235 238 241 243 245 247 249 252 255 258 259 260 262 263 264 267 271 273 273 273 273 273 274 275 276 277 278 279 280 281 280 278 278 281 285 280 275 275 275 272 271
230 231 233 235 237 240 243 245 247 250 253 257 258 260 260 261 263 265 267 269 269 270 272 272 273 274 275 276 278 277 278 278 280 280 281 285 287 282 279 279 277 279 279 277
230 231 235 237 239 241 243 245 247 249 253 257 260 260 261 263 265 268 269 270 269 270 272 273 273 275 275 275 276 276 276 278 280 283 286 291 288 285 284 284 284 281 278 278
231 232 234 236 238 241 244 246 248 251 254 258 260 262 263 266 267 268 270 272 272 271 271 274 276 277 278 276 276 277 279 282 282 284 291 288 288 289 288 284 277 277 279 278
233 234 237 238 239 243 246 249 250 252 254 259 261 263 265 266 268 269 269 270 274 275 277 276 278 278 275 275 276 278 281 283 283 288 294 290 292 289 282 276 282 280 278 275
235 236 238 240 240 244 246 249 251 253 255 258 260 262 264 266 267 270 270 272 272 274 276 278 278 276 276 277 278 280 280 281 284 292 286 281 291 285 282 283 283 280 277 275
237 238 240 241 242 245 247 250 253 252 253 255 258 260 262 263 264 266 269 272 273 275 276 275 276 276 275 278 280 283 280 284 287 285 284 287 281 281 283 284 283 282 281 280
237 238 240 242 243 244 246 248 250 251 252 252 256 260 261 264 267 269 270 271 273 273 273 276 277 278 279 282 283 282 287 286 286 284 286 287 284 286 285 286 285 284 285 282
236 238 239 242 243 244 247 250 251 251 251 253 257 261 263 265 266 268 269 269 269 272 273 274 275 277 282 284 283 281 284 284 285 288 290 292 289 284 284 285 282 280 280 277
237 239 241 242 243 244 247 249 251 253 254 256 258 259 263 264 264 263 263 266 268 272 273 274 277 280 282 283 283 284 287 289 291 292 292 291 287 284 282 284 283 285 281 281
236 239 240 242 243 244 248 251 254 256 256 256 256 254 255 261 262 263 265 267 271 272 275 278 279 280 284 286 288 290 290 291 294 294 294 289 281 279 279 279 281 281 284 289
237 239 240 242 244 246 250 253 254 254 255 255 254 254 254 256 260 263 266 269 271 274 275 278 281 281 286 287 288 289 293 295 294 294 294 288 291 283 281 284 281 278 283 286
235 238 240 241 244 246 248 249 252 254 255 253 251 251 252 253 257 261 263 265 268 272 275 278 279 282 286 288 292 296 297 297 297 293 285 289 295 295 297 298 287 277 282 287
234 236 238 240 242 244 246 248 250 253 252 250 248 247 250 255 255 256 260 265 268 270 274 275 276 284 289 293 295 296 296 299 298 288 286 296 294 293 292 290 292 293 287 272
233 235 237 239 242 244 246 249 249 248 244 242 246 251 254 255 256 258 260 264 264 268 272 273 280 289 295 297 298 298 297 302 298 289 294 296 296 293 292 298 294 292 284 255
233 235 237 239 241 244 244 244 242 241 240 243 248 254 256 255 256 258 259 261 263 268 271 276 286 293 293 295 298 301 303 302 293 288 289 289 289 284 290 297 290 291 275 262
231 232 234 237 238 239 237 235 235 236 238 242 247 252 252 253 255 256 257 259 263 266 272 284 289 288 291 293 295 297 299 299 287 284 286 284 285 290 300 284 285 289 279 267
228 229 230 232 229 231 230 229 230 234 237 240 245 247 248 250 254 256 256 256 260 271 281 283 286 288 288 290 292 294 297 294 277 277 279 279 273 267 264 264 270 273 269 265
222 223 224 225 225 226 225 224 227 231 234 238 242 244 245 248 248 246 250 257 267 273 280 285 288 291 292 289 289 290 288 278 270 270 272 271 267 257 263 267 265 268 269 264
Height
10370 10375 10382 10387 10393 10399 10405 10409 10412 10416 10419 10421 10422 10426 10435 10438 10442 10446 10449 10453 10458 10460 10464 10470 10476 10482 10483 10488 10494 10496 10499 10501 10504 10504 10500 10499 10502 10502 10498 10497 10499 10497 10501 10531
10360 10367 10373 10379 10385 10392 10399 10403 10407 10411 10412 10414 10417 10422 10429 10433 10434 10440 10442 10446 10449 10451 10455 10459 10464 10469 10471 10475 10477 10481 10481 10487 10487 10487 10482 10480 10479 10478 10476 10474 10476 10479 10473 10506
10350 10357 10364 10370 10377 10383 10390 10395 10400 10403 10405 10407 10411 10415 10420 10423 10427 10431 10432 10437 10440 10444 10448 10453 10457 10457 10458 10463 10464 10465 10466 10470 10472 10471 10467 10464 10461 10459 10456 10453 10453 10447 10463 10461
10339 10346 10354 10360 10368 10374 10380 10385 10390 10392 10397 10400 10404 10406 10408 10412 10417 10421 10424 10427 10431 10437 10439 10441 10443 10443 10448 10448 10450 10450 10454 10459 10457 10455 10452 10450 10451 10448 10439 10436 10430 10419 10435 10415
10328 10334 10342 10349 10356 10362 10368 10373 10378 10383 10388 10392 10395 10396 10394 10401 10406 10411 10415 10414 10421 10425 10424 10426 10434 10435 10432 10431 10434 10435 10435 10438 10435 10434 10430 10431 10441 10435 10429 10418 10407 10393 10391 10401
10313 10320 10329 10336 10343 10350 10353 10359 10367 10374 10377 10380 10383 10385 10388 10387 10394 10397 10402 10405 10407 10407 10411 10420 10419 10417 10419 10422 10416 10411 10411 10409 10411 10419 10410 10411 10431 10414 10401 10394 10380 10368 10375 10383
10299 10306 10314 10323 10330 10336 10341 10349 10355 10361 10365 10368 10370 10372 10376 10379 10384 10383 10388 10390 10393 10394 10403 10405 10403 10403 10404 10405 10403 10394 10391 10384 10386 10398 10390 10398 10400 10392 10374 10363 10360 10355 10354 10351
10284 10292 10300 10308 10316 10323 10329 10336 10343 10349 10351 10353 10354 10360 10362 10366 10373 10375 10371 10375 10379 10381 10385 10387 10388 10388 10388 10383 10382 10376 10372 10365 10363 10369 10366 10375 10388 10362 10350 10341 10355 10342 10313 10320
10268 10277 10285 10294 10302 10308 10315 10322 10329 10334 10337 10336 10341 10345 10348 10353 10358 10360 10359 10362 10366 10366 10366 10366 10371 10369 10368 10368 10366 10358 10350 10344 10342 10342 10337 10346 10362 10345 10329 10311 10333 10303 10296 10297
10254 10263 10270 10279 10287 10293 10300 10307 10314 10320 10322 10320 10325 10327 10332 10335 10341 10343 10349 10350 10349 10350 10349 10350 10352 10352 10351 10351 10349 10340 10330 10321 10317 10308 10302 10330 10333 10317 10297 10293 10292 10292 10278 10274
10238 10248 10256 10264 10272 10280 10285 10291 10299 10305 10309 10306 10307 10307 10308 10318 10324 10329 10333 10329 10332 10331 10330 10331 10330 10337 10333 10334 10328 10318 10308 10297 10294 10287 10287 10295 10296 10287 10273 10267 10271 10265 10261 10253
10219 10230 10240 10248 10257 10264 10269 10274 10284 10293 10296 10287 10289 10286 10291 10302 10308 10310 10313 10307 10308 10310 10310 10314 10315 10315 10314 10309 10308 10290 10288 10279 10273 10265 10280 10264 10262 10264 10260 10247 10229 10236 10230 10235
10201 10212 10223 10234 10243 10249 10252 10259 10269 10275 10281 10272 10268 10269 10278 10280 10289 10293 10289 10283 10288 10288 10294 10293 10295 10295 10287 10286 10287 10276 10270 10257 10247 10249 10265 10231 10246 10237 10225 10215 10217 10215 10212 10208
10183 10195 10206 10217 10227 10233 10237 10241 10250 10256 10261 10259 10247 10253 10256 10264 10269 10273 10268 10267 10267 10268 10272 10274 10272 10266 10264 10266 10264 10261 10245 10237 10234 10246 10231 10214 10230 10205 10197 10201 10196 10192 10195 10193
10168 10178 10189 10199 10209 10217 10221 10225 10229 10233 10240 10245 10234 10233 10238 10245 10249 10252 10251 10250 10247 10248 10251 10252 10250 10245 10240 10247 10245 10237 10214 10224 10219 10221 10205 10206 10211 10193 10174 10182 10177 10169 10174 10176
10151 10161 10171 10181 10191 10200 10202 10200 10206 10213 10220 10230 10220 10218 10223 10225 10229 10232 10233 10233 10233 10231 10231 10232 10230 10221 10219 10230 10227 10206 10208 10201 10195 10195 10193 10188 10183 10183 10162 10167 10160 10157 10158 10154
10135 10143 10154 10165 10175 10184 10182 10178 10185 10191 10203 10212 10215 10207 10203 10208 10211 10213 10215 10216 10216 10217 10217 10215 10211 10206 10205 10208 10206 10199 10190 10184 10178 10178 10178 10171 10164 10161 10151 10147 10142 10145 10142 10136
10120 10129 10138 10149 10160 10168 10155 10152 10166 10179 10189 10197 10204 10195 10185 10189 10192 10196 10198 10198 10202 10203 10201 10198 10195 10191 10189 10193 10186 10182 10175 10168 10163 10163 10157 10155 10149 10140 10138 10134 10129 10130 10123 10124
10104 10113 10122 10133 10143 10142 10127 10144 10156 10162 10171 10180 10186 10182 10175 10172 10172 10179 10182 10184 10186 10188 10186 10184 10180 10175 10178 10175 10170 10166 10160 10157 10151 10145 10142 10138 10134 10131 10128 10125 10118 10118 10114 10114
10089 10099 10111 10119 10121 10117 10124 10134 10140 10147 10156 10167 10169 10164 10162 10161 10162 10166 10169 10171 10172 10173 10173 10171 10167 10160 10168 10161 10157 10153 10147 10143 10139 10134 10128 10120 10120 10118 10116 10114 10112 10109 10107 10106
10075 10087 10095 10099 10101 10106 10111 10119 10127 10136 10146 10150 10148 10145 10146 10151 10155 10156 10158 10159 10161 10160 10161 10161 10152 10150 10156 10149 10143 10138 10134 10129 10126 10122 10116 10114 10113 10107 10106 10106 10104 10102 10101 10100
10066 10071 10074 10080 10087 10092 10100 10111 10120 10128 10132 10132 10128 10127 10136 10142 10143 10146 10148 10150 10149 10149 10148 10148 10140 10146 10139 10135 10130 10125 10122 10118 10115 10110 10105 10105 10103 10101 10099 10098 10097 10096 10095 10094
10046 10054 10061 10070 10076 10086 10098 10106 10112 10115 10112 10112 10113 10121 10132 10133 10135 10136 10137 10139 10138 10139 10138 10135 10134 10133 10127 10121 10116 10112 10110 10107 10106 10100 10098 10096 10095 10093 10092 10092 10092 10092 10091 10091
10035 10044 10053 10059 10074 10083 10089 10092 10097 10098 10102 10102 10108 10115 10122 10122 10123 10126 10127 10128 10128 10129 10128 10126 10125 10122 10116 10111 10107 10103 10101 10099 10097 10093 10092 10090 10088 10088 10089 10090 10089 10089 10089 10089
10025 10036 10046 10058 10064 10069 10073 10079 10083 10085 10088 10094 10099 10106 10110 10112 10114 10115 10117 10118 10121 10119 10118 10118 10115 10111 10106 10102 10098 10095 10092 10091 10088 10086 10085 10084 10083 10084 10085 10085 10086 10087 10088 10088
10018 10032 10042 10044 10051 10054 10060 10066 10071 10074 10079 10085 10090 10096 10100 10103 10106 10107 10109 10112 10110 10112 10110 10107 10103 10100 10095 10092 10089 10086 10084 10084 10081 10079 10079 10078 10079 10080 10080 10081 10082 10084 10085 10086
10019 10024 10027 10032 10038 10044 10051 10056 10060 10064 10071 10077 10082 10087 10091 10095 10098 10099 10100 10103 10104 10103 10100 10097 10092 10089 10085 10081 10078 10077 10075 10075 10073 10072 10072 10073 10074 10076 10077 10078 10079 10080 10082 10084